Wind_Speed
6 7 11 21 11 4 3 2 9 2 3 5 12 15 20 11 4 8 8 7 8 9 7 11 15 17 18 16 8 4 6 15 17 21 20 24 26 30 34 30 34 36 36 34
4 12 16 7 10 9 5 6 12 8 3 7 8 17 24 18 2 5 9 8 7 7 9 12 16 18 19 17 15 13 11 8 16 20 18 19 17 26 31 32 31 29 33 35
11 6 13 10 8 9 9 10 9 11 6 8 10 9 7 6 11 8 7 7 6 7 9 10 14 16 17 20 20 19 17 17 14 14 16 15 18 16 16 22 26 28 31 33
10 6 6 8 12 13 14 10 13 13 7 7 2 9 7 8 9 6 5 6 6 7 7 8 11 14 15 16 19 21 22 21 17 7 9 17 21 19 25 31 31 32 33 37
8 8 15 18 13 12 8 6 8 7 7 7 10 7 3 10 7 8 6 5 5 6 6 8 9 10 12 15 18 20 20 20 20 15 9 14 17 21 19 25 28 30 32 33
11 2 8 10 8 14 6 4 4 2 2 8 12 11 9 7 8 9 6 5 4 4 6 7 9 9 11 13 15 16 16 15 16 16 13 12 17 21 20 23 20 21 28 30
18 11 2 4 6 3 13 9 3 4 5 8 3 12 11 6 7 14 13 6 3 4 7 8 10 12 13 14 15 15 13 11 11 11 12 15 14 16 21 21 22 22 24 28
14 8 22 11 20 11 14 12 7 8 6 4 3 9 2 7 10 10 7 7 5 3 4 6 8 11 13 15 16 18 15 16 14 12 12 14 15 17 18 21 21 22 24 26
9 8 2 2 10 18 9 13 10 5 1 5 6 3 4 7 8 7 7 4 5 7 8 10 12 13 14 14 16 16 18 18 18 18 16 16 15 14 17 23 26 26 25 29
5 3 1 3 3 5 13 12 5 1 6 8 8 8 9 13 14 8 4 5 8 9 11 13 14 19 19 18 19 22 18 16 19 19 17 16 17 15 15 17 22 26 28 28
5 2 3 2 6 11 8 9 4 8 5 5 6 5 3 14 14 9 2 7 8 10 11 12 13 18 19 20 20 22 26 23 23 18 15 14 14 15 16 16 19 24 27 28
5 4 7 8 2 1 1 9 12 7 6 4 4 7 2 14 10 5 2 4 6 7 9 10 13 17 18 19 21 22 25 28 24 20 16 12 10 11 12 13 15 18 23 26
8 6 4 3 3 2 6 5 4 3 3 14 8 3 6 6 5 3 5 5 6 9 12 11 11 13 19 21 24 24 26 27 22 16 14 11 9 8 9 9 11 13 14 18
7 6 9 10 3 4 10 8 9 10 8 10 14 7 10 11 8 9 11 9 9 9 11 11 11 10 18 22 23 25 25 23 17 13 11 8 7 6 6 7 7 6 9 10
6 11 16 2 3 2 4 14 17 14 12 14 13 18 11 9 6 7 7 8 10 11 13 13 14 14 21 25 27 25 23 21 14 14 11 8 7 5 3 1 2 3 2 5
2 4 7 12 4 4 2 4 9 10 5 13 11 18 5 4 3 5 8 9 10 12 14 13 14 16 19 23 26 26 26 14 12 12 9 8 6 4 3 2 2 4 3 8
6 6 6 7 3 3 11 15 14 7 7 8 13 13 3 3 3 6 9 9 11 12 12 14 15 15 20 23 24 24 19 8 10 9 8 7 5 6 5 5 5 6 9 11
8 8 2 4 7 7 2 3 11 19 15 16 12 7 8 7 5 6 8 10 9 10 12 13 13 20 21 23 21 16 9 6 8 8 10 10 8 5 6 6 6 7 8 11
7 6 5 6 6 6 3 5 7 11 11 11 11 11 9 6 4 5 6 4 7 9 11 14 18 21 22 22 18 6 3 7 8 10 9 10 9 8 7 9 9 8 10 12
10 4 4 4 5 9 2 3 7 7 6 7 12 9 7 2 6 6 5 5 9 12 12 15 20 22 21 21 10 3 8 9 8 9 11 12 13 13 13 11 9 8 8 9
8 6 7 6 4 4 4 9 8 7 1 2 6 6 4 4 7 11 11 14 14 13 15 17 17 20 22 19 13 10 9 6 6 10 11 14 14 14 12 10 9 10 9 9
10 9 5 4 5 9 11 7 8 4 4 4 3 5 7 8 11 13 14 13 12 12 14 14 15 18 17 12 12 15 8 5 8 10 14 15 14 14 13 11 11 12 13 13
6 6 7 7 5 1 13 7 6 5 2 3 5 7 8 9 10 11 13 14 13 14 16 13 10 10 9 10 14 11 9 7 10 14 15 14 13 12 11 12 13 11 12 11
2 3 3 5 6 5 11 3 2 2 6 8 8 10 9 10 10 11 11 11 10 12 13 12 10 11 8 4 4 5 0 5 7 8 10 12 10 10 10 11 12 14 14 12
2 9 7 1 2 4 6 10 9 6 5 6 6 7 9 12 15 13 13 9 8 11 13 13 13 14 12 6 3 3 4 5 6 6 7 8 10 12 12 12 15 16 17 18
5 5 5 4 7 5 3 3 3 4 5 8 10 11 11 11 13 12 10 11 11 11 11 13 14 13 14 12 8 6 8 10 9 8 9 10 10 11 13 14 11 11 10 9
Wind_Direction
172 188 206 214 203 214 133 232 273 192 234 286 271 281 290 282 286 141 123 103 85 68 42 44 44 49 56 58 56 23 274 256 242 237 226 232 236 243 242 237 240 242 241 233
144 216 225 157 192 216 229 256 270 288 250 214 263 263 274 282 241 141 128 112 96 90 70 50 44 42 42 42 37 33 22 319 256 246 236 229 231 239 245 247 243 240 239 233
199 198 203 187 187 202 226 233 248 265 281 265 283 268 241 51 117 106 101 115 109 86 74 52 40 36 34 29 24 18 11 359 348 251 253 233 235 242 244 243 249 246 241 237
235 207 176 192 218 207 244 209 239 261 290 286 301 290 247 178 152 131 126 114 100 78 58 40 36 33 29 19 21 23 21 15 13 349 256 244 246 238 250 253 260 259 253 244
211 186 209 227 223 187 239 174 203 229 237 292 233 261 200 152 177 161 148 130 97 65 45 32 23 18 21 20 16 15 16 15 10 0 314 268 259 259 263 260 258 260 257 251
249 169 190 209 195 186 136 120 69 72 191 252 227 225 256 198 189 149 162 152 94 49 23 18 14 12 7 2 2 1 1 360 355 348 335 307 285 275 266 261 257 252 256 252
220 215 211 172 132 118 178 153 200 222 200 257 166 219 253 142 148 153 152 131 84 34 16 2 350 344 340 340 336 334 332 331 333 325 318 312 301 286 277 269 260 248 247 248
202 212 207 192 212 193 185 197 206 241 219 274 160 231 264 117 107 102 106 110 107 34 340 322 328 323 319 321 330 330 321 317 318 315 314 305 297 291 284 278 269 260 251 247
175 224 55 87 211 193 188 220 207 254 107 292 218 200 150 145 136 122 112 78 7 344 341 338 338 333 324 319 315 312 317 312 311 315 319 318 313 306 296 286 280 267 258 255
169 135 16 133 124 234 211 161 180 131 212 238 231 243 234 181 175 158 117 359 342 344 344 340 336 331 326 320 316 321 315 305 304 298 299 301 303 302 303 297 284 269 264 252
123 36 149 191 199 175 173 192 161 172 212 234 273 243 323 183 164 151 68 344 333 332 327 319 315 316 317 318 315 310 313 309 307 292 279 281 290 294 293 290 286 274 267 256
176 151 217 212 155 292 276 206 192 193 189 236 290 249 83 142 141 144 7 318 291 288 301 304 306 308 306 304 307 307 306 303 298 286 265 266 275 287 290 287 277 269 268 258
171 169 163 198 192 196 213 187 175 187 94 212 215 218 139 136 174 203 334 322 311 316 327 317 310 305 312 312 307 303 296 289 286 259 238 240 251 268 289 300 296 283 268 262
124 165 210 215 154 153 192 187 187 195 216 214 233 250 198 230 271 333 343 337 324 310 309 311 316 313 314 307 303 298 293 291 272 235 231 233 246 260 281 302 301 302 295 272
142 210 208 170 121 135 192 196 188 200 216 212 236 238 225 223 290 306 300 300 311 318 319 321 318 320 320 318 314 308 303 290 241 211 203 206 220 228 232 232 284 26 278 238
187 150 173 180 110 59 252 207 197 209 225 256 247 254 195 231 267 285 296 309 314 310 310 314 317 317 319 319 312 312 313 279 218 194 178 189 195 200 193 125 126 94 149 156
144 133 170 200 132 17 275 216 207 199 207 209 231 255 255 216 244 292 297 296 296 301 310 313 313 311 314 311 316 316 320 255 193 167 176 188 185 177 145 113 104 119 144 151
138 134 95 129 122 223 348 48 212 217 229 225 241 245 267 266 290 283 280 287 296 309 316 317 315 316 311 309 316 323 322 205 169 168 173 177 178 176 129 113 122 132 142 146
140 129 129 166 205 321 206 212 159 177 232 218 228 241 252 285 307 259 243 269 278 299 310 313 318 316 312 313 314 326 191 157 166 172 181 181 153 157 149 149 133 133 138 140
158 159 121 159 177 214 53 143 141 102 262 218 212 228 245 174 263 277 300 298 298 311 308 316 321 322 316 314 299 218 205 172 185 185 193 176 172 169 171 154 136 146 159 149
166 173 180 177 206 260 186 149 131 158 199 123 188 211 187 229 247 292 304 297 297 300 306 316 323 324 325 323 303 248 219 185 202 203 194 188 173 173 170 153 160 170 165 156
167 157 177 171 201 249 164 142 191 137 154 178 200 234 242 255 275 278 287 285 283 290 303 309 318 324 329 338 331 288 261 223 216 205 192 185 177 176 167 165 176 178 170 158
175 175 168 184 201 189 172 183 165 147 183 223 227 248 224 265 274 285 288 289 290 293 295 293 292 307 322 350 348 302 294 235 202 191 187 179 175 173 166 170 180 169 175 164
121 128 123 151 179 186 198 186 204 239 244 254 261 271 279 274 287 292 286 288 291 300 300 296 280 268 276 338 311 305 313 230 211 202 188 175 171 170 178 185 195 190 180 176
139 152 152 120 206 164 201 211 218 221 237 257 262 252 268 280 281 285 282 283 288 296 302 305 292 278 277 265 202 248 160 179 203 195 208 197 182 178 177 196 203 204 206 198
180 152 166 191 199 203 194 162 213 271 253 260 280 289 281 271 275 283 284 291 288 296 306 302 302 292 281 244 231 198 206 190 195 195 196 196 189 182 181 180 178 205 204 194
Height
761 767 771 761 769 770 774 775 772 774 768 771 766 763 749 750 754 760 764 766 767 767 768 765 761 757 755 753 753 754 757 758 759 759 759 761 762 764 766 766 769 771 777 781
764 762 754 762 769 772 775 778 775 769 767 770 765 762 746 742 758 761 764 768 768 768 766 765 763 762 760 759 757 756 755 754 755 756 757 758 758 758 760 762 765 767 769 773
751 749 748 757 767 774 774 775 776 772 767 765 764 749 750 762 765 767 769 770 770 769 768 766 765 764 762 761 759 758 756 754 751 752 756 756 757 757 758 759 760 761 763 766
749 745 751 758 760 762 768 765 766 770 773 768 764 753 743 753 764 768 769 770 770 769 770 768 766 765 763 763 762 759 756 754 752 753 754 754 754 754 752 752 752 753 756 757
741 749 751 750 750 757 758 762 765 768 772 772 762 766 732 750 761 765 768 769 770 771 771 770 769 766 764 763 762 760 757 756 754 752 752 752 752 750 750 748 748 748 748 749
735 739 742 740 744 749 756 763 773 779 774 773 759 759 716 737 740 762 764 767 768 769 770 769 769 767 765 764 762 760 757 756 754 753 751 750 749 748 745 743 744 744 744 744
736 737 738 736 745 754 751 760 772 774 777 757 757 755 714 747 750 750 758 765 768 768 767 766 765 764 763 762 761 759 757 754 751 749 747 746 745 743 742 741 740 738 737 737
734 741 730 729 726 737 748 745 755 766 760 748 761 745 727 751 756 759 764 766 768 769 769 769 768 766 765 763 759 758 757 754 752 750 746 744 742 739 737 736 734 733 731 728
727 729 729 729 725 730 746 748 743 755 771 765 738 744 751 757 759 761 764 766 767 767 767 765 764 763 761 758 756 755 753 750 748 746 744 743 743 741 737 734 732 729 729 725
717 729 734 732 731 731 727 734 761 774 771 760 724 733 717 751 753 758 760 762 763 762 761 761 759 756 754 754 752 749 746 743 742 740 737 738 738 735 733 730 730 725 723 721
714 719 734 735 731 729 737 736 748 752 755 744 731 711 735 732 747 753 758 759 760 759 759 759 756 753 751 748 747 745 741 738 735 732 732 734 734 732 729 725 723 722 722 720
709 724 734 729 735 736 733 726 729 737 758 759 747 718 743 743 749 753 755 758 758 758 757 754 753 751 749 746 741 737 734 730 728 728 729 730 731 730 728 724 721 718 718 717
712 731 742 732 735 736 731 734 735 740 746 733 739 723 748 752 753 753 752 753 754 754 750 749 748 747 742 737 733 731 728 725 724 724 724 725 725 725 725 723 721 719 715 714
707 716 707 699 705 713 727 734 734 726 732 720 720 721 751 748 744 743 744 745 748 750 747 743 740 739 737 735 729 725 722 720 717 718 720 722 722 722 721 721 719 717 718 716
708 714 705 718 723 724 721 715 726 723 717 717 711 722 730 737 744 746 748 747 746 744 741 737 737 734 732 727 725 719 716 712 711 712 715 718 720 720 720 719 721 716 716 717
714 720 714 717 731 734 729 728 727 728 732 721 722 719 730 737 745 748 747 744 743 740 738 737 734 732 729 724 723 716 711 707 708 709 713 716 719 720 720 718 717 715 718 719
710 717 714 721 740 739 730 720 724 726 727 724 725 715 730 735 741 742 741 742 741 739 739 736 732 729 726 723 719 712 706 706 709 710 711 717 719 719 718 718 719 719 721 720
709 718 732 748 747 734 705 721 715 715 716 722 722 727 726 731 736 738 739 738 738 738 737 734 730 725 723 718 713 710 708 710 709 713 713 715 719 720 717 717 719 721 722 723
713 725 739 744 740 715 720 721 720 718 719 720 725 728 728 729 732 730 733 733 735 735 734 731 729 726 720 713 711 707 710 710 712 713 713 715 714 718 720 721 720 722 724 726
719 720 725 745 735 719 713 716 717 717 721 715 721 727 728 730 726 721 725 728 731 731 730 728 725 723 717 711 709 707 710 708 710 712 713 713 714 717 720 719 719 722 726 727
719 720 723 729 721 713 711 715 714 726 716 721 723 726 729 729 724 721 725 724 725 726 724 722 720 718 713 710 709 706 707 704 708 711 712 714 713 715 717 717 720 723 726 728
703 718 722 727 728 720 707 717 711 710 719 722 725 725 727 726 725 724 722 721 721 719 718 718 716 715 712 709 708 707 702 703 706 708 711 712 712 714 715 717 721 723 726 729
702 690 699 705 705 704 703 700 706 712 715 720 723 723 725 724 722 721 719 717 715 715 714 714 713 713 713 710 707 707 703 703 705 706 709 710 712 713 713 716 720 723 726 729
691 692 694 703 704 704 703 708 711 713 716 717 719 719 720 719 717 716 715 714 713 711 710 710 710 708 707 705 706 705 702 705 706 708 708 708 709 711 714 716 719 721 724 728
684 690 694 702 702 707 709 707 708 712 714 715 716 717 716 715 711 711 709 710 710 708 708 707 705 702 700 701 699 702 701 704 706 707 710 710 709 710 712 716 719 721 723 724
683 685 689 695 692 693 697 701 704 707 709 711 712 711 710 709 707 706 706 706 706 705 704 703 701 698 696 697 696 695 700 701 704 706 707 708 710 711 712 715 718 722 723 724